Total_Precipitation_Accumulation
0.23 0.36 0.80 1.13 1.33 1.34 1.20 1.19 1.19 1.18 1.22 1.17 1.13 1.08 0.97 0.96 0.95 0.93 0.92 0.97 1.14 1.30 1.40 1.43 1.34 1.27 1.12 0.98 0.78 0.57 0.51 0.53 0.48 0.41 0.39 0.47 0.57 0.58 0.52 0.51 0.55 0.62 0.85
0.24 0.35 0.75 1.12 1.41 1.44 1.30 1.18 1.07 1.03 1.11 1.23 1.21 1.11 1.06 1.03 1.04 1.00 1.05 1.14 1.29 1.38 1.43 1.43 1.32 1.13 0.92 0.72 0.57 0.45 0.38 0.30 0.24 0.17 0.14 0.24 0.45 0.58 0.58 0.54 0.55 0.74 0.83
0.25 0.37 0.69 1.11 1.39 1.37 1.26 1.15 1.00 0.98 1.08 1.22 1.32 1.20 1.15 1.14 1.15 1.10 1.14 1.25 1.40 1.41 1.29 1.19 1.10 0.87 0.70 0.52 0.41 0.34 0.31 0.25 0.18 0.12 0.13 0.23 0.41 0.69 0.74 0.67 0.77 0.90 0.84
0.30 0.40 0.66 1.11 1.40 1.43 1.33 1.18 1.04 1.03 1.12 1.24 1.42 1.41 1.32 1.25 1.22 1.23 1.17 1.26 1.30 1.22 1.12 0.91 0.80 0.62 0.53 0.44 0.36 0.31 0.27 0.23 0.15 0.12 0.19 0.25 0.36 0.82 0.92 0.81 0.85 0.89 0.81
0.38 0.48 0.75 1.16 1.48 1.53 1.39 1.25 1.11 1.09 1.22 1.30 1.37 1.47 1.45 1.35 1.35 1.36 1.27 1.17 1.15 1.06 0.92 0.74 0.61 0.46 0.39 0.35 0.34 0.31 0.26 0.20 0.12 0.11 0.18 0.24 0.41 0.89 0.93 0.88 0.84 0.83 0.77
0.50 0.65 0.86 1.20 1.54 1.66 1.51 1.36 1.23 1.22 1.33 1.38 1.41 1.53 1.52 1.50 1.55 1.48 1.26 1.09 0.99 0.87 0.75 0.66 0.55 0.41 0.35 0.32 0.29 0.26 0.24 0.18 0.10 0.11 0.16 0.22 0.38 0.83 0.96 0.88 0.83 0.79 0.84
0.56 0.82 1.08 1.38 1.65 1.84 1.75 1.63 1.54 1.45 1.46 1.48 1.50 1.55 1.58 1.56 1.58 1.45 1.17 1.01 0.92 0.81 0.76 0.66 0.54 0.41 0.36 0.33 0.28 0.22 0.20 0.14 0.13 0.17 0.18 0.22 0.44 0.91 1.00 0.92 0.89 0.88 0.87
0.68 0.92 1.30 1.72 1.90 2.08 2.07 1.90 1.84 1.65 1.58 1.60 1.60 1.62 1.65 1.65 1.59 1.50 1.20 1.05 0.93 0.88 0.85 0.74 0.59 0.47 0.37 0.31 0.27 0.22 0.19 0.12 0.12 0.16 0.19 0.24 0.47 0.82 0.87 0.81 0.79 0.83 0.82
0.98 1.08 1.32 1.70 2.00 2.25 2.29 2.00 1.99 1.83 1.66 1.66 1.69 1.72 1.62 1.57 1.56 1.47 1.25 1.14 1.03 1.01 0.97 0.86 0.71 0.56 0.42 0.34 0.27 0.21 0.15 0.10 0.10 0.16 0.17 0.24 0.46 0.73 0.73 0.69 0.73 0.80 0.78
1.43 1.43 1.48 1.72 1.96 2.25 2.35 2.01 1.86 1.77 1.70 1.64 1.61 1.54 1.42 1.33 1.35 1.35 1.22 1.15 1.06 1.06 1.03 0.90 0.78 0.63 0.49 0.39 0.29 0.20 0.15 0.12 0.12 0.16 0.19 0.27 0.51 0.75 0.73 0.73 0.73 0.75 0.80
1.88 1.88 1.84 1.89 1.94 2.13 2.31 2.16 2.01 1.85 1.72 1.61 1.54 1.39 1.33 1.28 1.22 1.09 1.02 1.01 1.01 1.05 1.08 0.96 0.83 0.71 0.49 0.36 0.28 0.21 0.18 0.16 0.17 0.23 0.25 0.33 0.61 0.79 0.82 0.81 0.79 0.75 0.79
2.00 2.00 2.06 2.10 2.08 2.17 2.23 2.24 2.17 1.97 1.81 1.64 1.47 1.35 1.35 1.35 1.25 1.08 1.03 0.99 1.03 1.08 1.13 1.07 0.89 0.76 0.53 0.41 0.34 0.28 0.24 0.21 0.24 0.28 0.29 0.42 0.69 0.86 0.89 0.85 0.77 0.75 0.79
2.24 2.17 2.17 2.26 2.36 2.33 2.32 2.24 2.17 1.96 1.87 1.79 1.62 1.45 1.41 1.54 1.44 1.33 1.17 1.05 1.08 1.06 1.08 1.04 0.93 0.74 0.56 0.45 0.39 0.33 0.29 0.28 0.28 0.31 0.34 0.48 0.79 0.98 0.99 0.90 0.79 0.76 0.79
2.63 2.51 2.50 2.61 2.64 2.57 2.47 2.33 2.22 2.00 1.83 1.77 1.70 1.66 1.57 1.53 1.40 1.32 1.22 1.04 1.01 0.98 1.02 1.06 0.92 0.79 0.69 0.56 0.47 0.44 0.41 0.37 0.35 0.40 0.41 0.45 0.70 0.97 1.10 1.07 0.94 0.91 0.89
2.86 2.89 2.86 2.95 3.02 2.93 2.80 2.57 2.28 2.11 1.90 1.78 1.75 1.73 1.64 1.54 1.43 1.34 1.27 1.22 1.07 0.99 0.97 1.06 1.06 0.93 0.83 0.74 0.62 0.51 0.47 0.48 0.44 0.47 0.47 0.47 0.59 0.83 1.15 1.30 1.27 1.20 1.15
2.90 3.09 3.24 3.29 3.27 3.21 3.02 2.77 2.45 2.29 2.11 2.01 1.91 1.79 1.71 1.67 1.63 1.56 1.39 1.30 1.19 1.07 1.02 1.09 1.13 1.05 0.97 0.86 0.75 0.64 0.56 0.55 0.47 0.45 0.47 0.50 0.53 0.64 0.95 1.28 1.44 1.48 1.49
2.86 3.17 3.39 3.58 3.74 3.54 3.35 3.08 2.77 2.60 2.43 2.26 2.07 1.93 1.81 1.74 1.82 1.78 1.65 1.42 1.27 1.24 1.20 1.20 1.24 1.24 1.14 0.98 0.87 0.79 0.70 0.63 0.55 0.51 0.50 0.51 0.51 0.49 0.67 1.02 1.34 1.47 1.58
2.82 3.06 3.30 3.38 3.71 3.86 3.75 3.50 3.09 2.84 2.68 2.54 2.37 2.21 2.10 1.92 1.96 2.03 1.86 1.69 1.54 1.49 1.44 1.37 1.28 1.20 1.13 1.01 0.91 0.84 0.78 0.73 0.65 0.64 0.64 0.57 0.51 0.45 0.51 0.69 0.92 1.19 1.45
2.87 3.00 3.32 3.38 3.53 3.80 3.96 3.84 3.59 3.31 3.05 2.84 2.70 2.53 2.42 2.28 2.17 2.18 2.09 1.94 1.86 1.76 1.70 1.59 1.45 1.27 1.16 1.04 0.97 0.96 0.91 0.83 0.78 0.73 0.68 0.61 0.57 0.54 0.54 0.55 0.61 0.79 1.02
2.96 3.23 3.46 3.65 3.71 3.96 4.39 4.40 4.12 3.87 3.58 3.36 3.12 2.90 2.77 2.68 2.55 2.37 2.33 2.26 2.17 2.01 1.89 1.85 1.69 1.49 1.31 1.24 1.18 1.08 1.00 0.91 0.89 0.84 0.76 0.69 0.65 0.64 0.67 0.67 0.68 0.69 0.76
2.70 3.06 3.21 3.51 3.75 3.96 4.20 4.26 4.03 3.76 3.57 3.42 3.41 3.33 3.13 2.95 2.85 2.67 2.48 2.48 2.42 2.21 1.98 1.97 1.94 1.77 1.60 1.56 1.51 1.29 1.11 0.99 0.92 0.85 0.86 0.85 0.76 0.70 0.73 0.81 0.86 0.80 0.68
2.35 2.60 2.84 3.10 3.40 3.62 3.74 3.85 3.96 3.96 3.72 3.46 3.41 3.44 3.37 3.24 3.08 2.87 2.68 2.58 2.55 2.49 2.23 2.06 2.11 2.05 1.89 1.83 1.85 1.79 1.59 1.39 1.09 0.92 0.89 0.87 0.84 0.83 0.78 0.77 0.82 0.84 0.80
2.09 2.32 2.54 2.79 3.00 3.15 3.51 3.83 3.97 4.24 4.13 3.70 3.35 3.18 3.31 3.37 3.33 3.10 2.87 2.80 2.73 2.71 2.61 2.39 2.27 2.24 2.17 2.04 2.02 2.21 2.01 1.65 1.28 1.07 0.99 0.95 0.91 0.93 0.92 0.87 0.83 0.83 0.84
1.81 2.02 2.32 2.62 2.86 2.94 3.26 3.52 3.56 3.57 3.65 3.41 3.21 3.19 3.30 3.36 3.40 3.37 3.17 2.95 2.84 2.80 2.75 2.80 2.78 2.62 2.48 2.26 2.08 1.96 1.89 1.70 1.64 1.42 1.16 1.11 1.05 0.99 1.02 1.00 0.93 0.91 0.89
1.61 1.73 2.00 2.40 2.71 2.87 2.99 3.20 3.41 3.44 3.44 3.51 3.46 3.35 3.27 3.23 3.27 3.39 3.33 3.13 2.83 2.66 2.58 2.65 2.76 2.81 2.67 2.42 2.22 2.07 1.93 1.71 1.60 1.64 1.45 1.27 1.25 1.10 1.04 1.08 1.10 1.11 1.12
1.44 1.48 1.70 2.00 2.43 2.82 2.96 3.02 3.12 3.18 3.15 3.25 3.40 3.39 3.32 3.20 3.14 3.19 3.20 3.09 2.91 2.68 2.51 2.53 2.66 2.75 2.79 2.69 2.46 2.22 2.10 1.94 1.68 1.67 1.62 1.46 1.47 1.34 1.19 1.16 1.21 1.27 1.28